Location: North Runcton
(52.7000°N, 0.4333°E)
Time: 15:29:47
(UTC+00:00)

CZ-2C R/B - Pass Details

Date: 19 May 2025
Orbit: 631 x 693 km, 98.1° (Epoch: 17 June)

Event Time Altitude Azimuth Distance (km) Brightness Sun altitude
Rises 23:12:46 0° 13° (NNE) 2,943 8.3 -16.7°
Reaches altitude 10° 23:14:59 10° 11° (N) 2,028 7.3 -16.8°
Maximum altitude 23:19:22 71° 288° (WNW) 673 3.8 -16.9°
Enters shadow 23:21:49 26° 209° (SSW) 1,264 4.7 -17.0°
